sat.trackr.live / text

‹ back to catalog

CARBONITE 1 (CBNT-1)

NORAD 40718 · 2015-032D

PAYLOAD ACTIVE UNKNOWN

§ Identity

Operator
Country
UK
Launch date
2015-07-10
Launch site
SRILR
Launch vehicle
Mass (kg)
RCS (m²)
0.50

Purposes: earth_obs

External: N2YO · Heavens-Above · Gunter

§ Orbital elements

Epoch: 2026-05-25T04:23:30.280704Z

Period
97.07 min
Inclination
97.6507°
Eccentricity
0.0014861
Mean motion
14.83503348 rev/d
Perigee alt
607.9 km
Apogee alt
628.7 km
Semi-major
6,996.4 km
B*
1.7886e-4
RAAN
324.2153°
Arg perigee
16.0451°
Mean anomaly
344.1231°
Rev number
58,593

§ Raw data

CARBONITE 1 (CBNT-1)1 40718U 15032D   26145.18298936  .00001423  00000+0  17886-3 0  99972 40718  97.6507 324.2153 0014861  16.0451 344.1231 14.83503348585930

JSON: /api/v1/satellites/40718 · /tle

For live sub-satellite position, see the globe view (requires WebGL).

§ Visibility from observer

Set your observer location to see the next 7 days of passes ≥ 10°. The values pass through the URL so the page stays shareable.

No JS? Fill the form by hand. The geolocation button needs JavaScript.

§ Radio — SatNOGS DB

ModeDescriptionDownlinkUplink
BPSK Telemetry 2.240 GHz

1 transmitter · refreshed weekly from db.satnogs.org